Location: Famechon
(49.7599°N, 2.0615°E)
Time: 12:06:48
(UTC+00:00)

Cosmos 1606 Rocket - Pass Details

Date: 03 February 2023
Orbit: 602 x 630 km, 82.5° (Epoch: 22 March)

Event Time Altitude Azimuth Distance (km) Brightness Sun altitude
Rises 18:28:32 0° 346° (NNW) 2,868 7.1 -16.1°
Reaches altitude 10° 18:30:47 10° 342° (NNW) 1,960 6.3 -16.5°
Maximum altitude 18:35:01 56° 265° (W) 722 4.2 -17.2°
Drops below altitude 10° 18:39:14 10° 187° (S) 1,949 6.2 -17.9°
Sets 18:41:28 0° 183° (S) 2,851 7.1 -18.2°
